[[{"header":{"parameterUnit":"m.s-1","parameterCategory":1,"la1":30.2991,"la2":30.254,"lo1":-89.0895,"lo2":-89.0444,"dy":0.0017,"dx":0.0017,"nx":28,"ny":28,"refTime":"2025-07-28T09:00:00:Z","depth":0,"parameterNumber":2,"parameterNumberName":"U-component_of_WINDS"},"data":[0,0,0,0,0,0,0,0,0,0,0,0,0,0,0,0,0,0,0,0,0,0,0,0,0,0,0,0,0,0,0,0,0,0,0,0,0,0,0,0,0,0,0,0,0,0,0,0,0,0,0,0,0,0,0,0,0,0,2.2332,2.2333,0,2.2481,2.2483,2.2485,2.2499,2.2498,2.2496,2.2495,2.2648,2.2653,2.2658,0,0,0,0,0,0,0,0,0,0,0,0,0,2.2057,2.2062,2.2331,2.2333,2.2335,2.2481,2.2483,2.2485,2.25,2.2498,2.2496,2.2494,2.2646,2.2652,2.2659,0,0,0,0,0,0,0,0,0,0,0,0,0,2.2188,2.2063,2.2331,2.236,2.2364,2.2481,2.2483,2.2486,2.25,2.2498,2.2495,2.2493,2.2644,2.2652,2.266,2.2758,0,0,2.2685,2.2689,0,0,0,0,0,0,0,0,2.2181,2.2198,2.2354,2.2358,2.2363,2.2469,2.2442,2.2577,2.2501,2.2448,2.2495,2.2492,2.259,2.2603,2.2636,2.2765,2.2771,2.2686,2.2691,2.2694,2.2697,0,0,0,0,0,0,0,2.2172,2.2192,2.2391,2.2356,2.2362,2.2365,2.2381,2.2468,2.2531,2.2453,2.2454,2.2472,2.2592,2.2628,2.264,2.2774,2.2686,2.2693,2.2698,2.2701,2.299,2.2993,0,0,0,0,0,0,2.2157,2.2184,2.2386,2.2395,2.2264,2.2372,2.239,2.2438,2.253,2.2541,2.2474,2.2472,2.2615,2.263,2.2645,2.2766,2.2694,2.2702,2.2707,2.2988,2.2991,2.2994,0,0,0,0,0,0,2.2151,2.2175,2.238,2.229,2.2317,2.2379,2.2433,2.2442,2.2477,2.2545,2.2557,2.2499,2.2614,2.2633,2.273,2.2771,2.2706,2.2713,2.2985,2.2989,2.2993,2.3007,0,0,0,0,0,0,2.2143,2.2173,2.2211,2.2291,2.2321,2.2462,2.2435,2.2446,2.2492,2.2491,2.2572,2.2583,2.2613,2.2717,2.2738,2.2781,2.272,2.2981,2.2986,2.2991,2.3003,2.3011,2.3018,0,0,0,0,0,2.2133,2.2209,2.2213,2.2237,2.237,2.2465,2.2482,2.2515,2.2495,2.2534,2.2577,2.258,2.2763,2.2727,2.275,2.2797,2.2979,2.2985,2.2991,2.3,2.301,2.3018,0,0,0,0,0,0,2.2132,2.222,2.2225,2.2329,2.2389,2.2467,2.2516,2.2525,2.2592,2.2588,2.2627,2.2645,2.274,2.2778,2.2736,2.2896,2.2869,2.288,2.2868,2.2878,2.2885,2.2873,2.2727,0,0,0,0,0,2.2143,2.2213,2.2286,2.237,2.2401,2.2453,2.2496,2.2516,2.258,2.2606,2.2657,2.2718,2.279,2.2836,2.2905,2.3009,2.3027,2.3053,2.306,2.3066,2.3075,2.3132,2.3145,2.3014,2.3014,2.3014,0,0,2.2168,2.2225,2.2266,2.2372,2.2421,2.2492,2.2475,2.255,2.2603,2.2617,2.2711,2.2751,2.2822,2.2923,2.2969,2.2957,2.3115,2.3074,2.3078,2.3084,2.314,2.3152,2.3163,2.3018,2.3017,2.3017,0,0,2.2249,2.2299,2.2375,2.2425,2.25,2.2534,2.2552,2.2629,2.2656,2.2751,2.2763,2.2827,2.2949,2.2999,2.3041,2.3142,2.3147,2.3163,2.3201,2.3257,2.3267,2.3277,2.3312,2.3325,2.3172,2.3172,2.3172,0,2.227,2.2378,2.2413,2.2488,2.2534,2.2551,2.2627,2.2674,2.2767,2.2798,2.2784,2.2938,2.2987,2.3099,2.3124,2.3157,2.3179,2.3154,2.3263,2.3273,2.3282,2.3316,2.333,2.3173,2.3173,2.3173,2.3173,0,2.24,2.2474,2.2526,2.2617,2.2668,2.2744,2.279,2.2838,2.2855,2.2891,2.2987,2.3047,2.3129,2.3157,2.3174,2.3272,2.3263,2.3255,2.3228,2.3295,2.3328,2.3342,2.3175,2.3175,2.3175,2.3174,0,0,2.2483,2.2592,2.2611,2.2652,2.2736,2.2794,2.287,2.2951,2.2991,2.3055,2.312,2.3223,2.3217,2.3264,2.3287,2.3336,2.3411,2.3323,2.3325,2.3337,2.3523,2.3528,2.3542,2.3416,2.3418,2.3421,2.3517,0,2.2574,2.271,2.2744,2.2861,2.293,2.2947,2.3013,2.3072,2.3108,2.3171,2.3211,2.3284,2.327,2.3299,2.3348,2.3392,2.3449,2.3385,2.3476,2.3479,2.3457,2.356,2.3565,2.3653,2.353,2.3532,2.3534,0,2.2697,2.2764,2.2888,2.2963,2.2993,2.3052,2.3128,2.3189,2.3256,2.3279,2.3332,2.335,2.343,2.3399,2.351,2.3466,2.3505,2.3532,2.3536,2.3546,2.351,2.3571,2.3682,2.3694,2.3555,2.3553,2.3551,0,2.2745,2.2866,2.2956,2.299,2.308,2.3121,2.3161,2.3225,2.3271,2.3338,2.3368,2.3444,2.3485,2.3542,2.358,2.3554,2.3688,2.366,2.3709,2.3708,2.3735,2.3733,2.3853,2.3762,2.3761,2.3761,2.3761,0,2.2842,2.2917,2.2978,2.3033,2.3118,2.3156,2.3238,2.3278,2.3335,2.3398,2.3417,2.3476,2.3522,2.3587,2.3617,2.3704,2.3723,2.3743,2.375,2.3741,2.3739,2.3767,2.3762,2.3765,2.3764,2.3763,2.3763,0,2.2909,2.2954,2.3053,2.313,2.3151,2.3209,2.3275,2.3329,2.3366,2.3445,2.3466,2.3523,2.3601,2.3644,2.3742,2.3762,2.3859,2.3863,2.3836,2.3839,2.3885,2.388,2.4027,2.4048,2.3943,2.3944,2.3945,0,2.2968,2.3026,2.3109,2.3153,2.3193,2.3263,2.331,2.335,2.3398,2.3479,2.3523,2.3602,2.3667,2.379,2.384,2.3915,2.3921,2.3967,2.3932,2.3921,2.3921,2.3917,2.3922,2.3973,2.3974,2.3975,2.3975,0,2.3067,2.3086,2.3154,2.3229,2.3285,2.3346,2.3407,2.3441,2.3491,2.3544,2.3624,2.3674,2.3774,2.3852,2.3931,2.3971,2.3982,2.3986,2.4001,2.3992,2.3974,2.3984,2.3852,2.3982,2.3982,2.3981,2.3981,2.398,2.3132,2.3184,2.3251,2.3325,2.3375,2.3431,2.3486,2.3529,2.3596,2.368,2.37,2.3784,2.3849,2.3956,2.3999,2.4065,2.4056,2.4078,2.4083,2.4088,2.4089,2.3964,2.4079,2.4079,2.4079,2.4079,2.4079,0,2.3231,2.3275,2.3343,2.3428,2.3486,2.3491,2.3559,2.3607,2.3681,2.3741,2.3804,2.3896,2.3971,2.4028,2.4105,2.4147,2.4154,2.4166,2.4163,2.4172,2.4093,2.4072,2.4159,2.4159,2.4159,2.4159,2.4159,2.4159,2.329,2.3378,2.3406,2.3519,2.3562,2.3644,2.3682,2.3734,2.3783,2.3884,2.3947,2.3983,2.4042,2.4124,2.4193,2.4208,2.4235,2.4247,2.4262,2.4187,2.4178,2.417,2.415,2.4253,2.4253,2.4336,2.4337,2.4337]},{"header":{"parameterUnit":"m.s-1","parameterCategory":1,"la1":30.2991,"la2":30.254,"lo1":-89.0895,"lo2":-89.0444,"dy":0.0017,"dx":0.0017,"nx":28,"ny":28,"refTime":"2025-07-28T09:00:00:Z","depth":0,"parameterNumber":3,"parameterNumberName":"V-component_of_WINDS"},"data":[0,0,0,0,0,0,0,0,0,0,0,0,0,0,0,0,0,0,0,0,0,0,0,0,0,0,0,0,0,0,0,0,0,0,0,0,0,0,0,0,0,0,0,0,0,0,0,0,0,0,0,0,0,0,0,0,0,0,0.0444,0.0443,0,0.0351,0.035,0.0349,0.0263,0.0262,0.0261,0.026,0.0164,0.0163,0.0161,0,0,0,0,0,0,0,0,0,0,0,0,0,0.0546,0.0545,0.0444,0.0443,0.0442,0.0351,0.035,0.0349,0.0263,0.0262,0.0261,0.026,0.0165,0.0163,0.0161,0,0,0,0,0,0,0,0,0,0,0,0,0,0.0482,0.0544,0.0444,0.0388,0.0382,0.0351,0.035,0.0348,0.0264,0.0262,0.0261,0.0259,0.0165,0.0163,0.0161,0.0178,0,0,0.0154,0.0153,0,0,0,0,0,0,0,0,0.0486,0.0479,0.0398,0.0392,0.0385,0.0317,0.0351,0.0291,0.0264,0.0309,0.026,0.0258,0.0216,0.021,0.0196,0.0173,0.0169,0.0153,0.0152,0.0151,0.015,0,0,0,0,0,0,0,0.0491,0.0482,0.0407,0.0397,0.0389,0.0367,0.0356,0.0339,0.0272,0.0305,0.0298,0.0288,0.0213,0.0198,0.0193,0.0168,0.0153,0.0151,0.015,0.0149,0.0152,0.0153,0,0,0,0,0,0,0.0504,0.0487,0.041,0.0404,0.0433,0.0367,0.0355,0.0341,0.0272,0.0261,0.029,0.0285,0.0203,0.0196,0.0189,0.0203,0.0151,0.0149,0.0147,0.015,0.0152,0.0154,0,0,0,0,0,0,0.0506,0.0498,0.0414,0.0444,0.0431,0.0367,0.0352,0.034,0.0325,0.0261,0.0249,0.0287,0.0201,0.0192,0.0181,0.0199,0.0148,0.0146,0.0148,0.0151,0.0153,0.0233,0,0,0,0,0,0,0.051,0.0499,0.0506,0.0444,0.043,0.0408,0.0353,0.0339,0.0321,0.0314,0.0256,0.0244,0.02,0.0185,0.0178,0.0195,0.0144,0.0146,0.0149,0.0152,0.0228,0.0237,0.0245,0,0,0,0,0,0.0514,0.0532,0.0506,0.0498,0.0437,0.0409,0.0401,0.0349,0.0323,0.0328,0.0287,0.0246,0.0198,0.0184,0.0176,0.0192,0.0145,0.0149,0.0152,0.0224,0.0236,0.0245,0,0,0,0,0,0,0.0598,0.0523,0.0494,0.0493,0.0458,0.0395,0.04,0.0363,0.0335,0.0329,0.0265,0.0253,0.0248,0.0218,0.0205,0.0204,0.0166,0.0168,0.0223,0.0234,0.0242,0.025,0.0142,0,0,0,0,0,0.0616,0.0601,0.0536,0.0542,0.0525,0.0466,0.0452,0.0415,0.0376,0.0361,0.0319,0.0282,0.0258,0.0244,0.0219,0.0223,0.0208,0.023,0.0238,0.0246,0.0248,0.0247,0.0255,0.0165,0.0165,0.0164,0,0,0.0654,0.0612,0.0606,0.0557,0.0526,0.051,0.0454,0.0441,0.0428,0.0359,0.0345,0.0313,0.0267,0.0263,0.0259,0.0239,0.027,0.025,0.0256,0.0255,0.0251,0.026,0.0268,0.0167,0.0166,0.0166,0,0,0.0716,0.0682,0.0683,0.0652,0.0604,0.0564,0.0565,0.0506,0.0482,0.0467,0.0414,0.0398,0.0359,0.0328,0.0308,0.0355,0.0316,0.0348,0.0394,0.0393,0.04,0.0406,0.0423,0.0429,0.0351,0.0351,0.0351,0,0.077,0.0745,0.0688,0.0677,0.0657,0.0592,0.0592,0.0564,0.0511,0.0498,0.0476,0.0424,0.0389,0.0376,0.0388,0.0373,0.0371,0.0355,0.0404,0.0409,0.0414,0.0429,0.0435,0.0355,0.0355,0.0354,0.0354,0,0.0812,0.0796,0.0801,0.0752,0.0732,0.0726,0.0668,0.0654,0.0618,0.058,0.0565,0.052,0.0484,0.0478,0.0443,0.046,0.0448,0.0416,0.0376,0.0428,0.0441,0.0446,0.0361,0.036,0.0359,0.0358,0,0,0.0927,0.0844,0.0847,0.0823,0.0764,0.075,0.0741,0.0705,0.0695,0.0659,0.065,0.0617,0.0585,0.0562,0.0522,0.0522,0.0561,0.0488,0.0486,0.0504,0.0576,0.0602,0.061,0.0534,0.0535,0.0536,0.058,0,0.0979,0.0959,0.0907,0.0903,0.0886,0.0823,0.0814,0.0777,0.0741,0.0721,0.068,0.0658,0.0618,0.0604,0.06,0.0557,0.0575,0.0553,0.0524,0.0524,0.0539,0.0616,0.0644,0.0688,0.0585,0.0586,0.0586,0,0.1038,0.1006,0.1001,0.0942,0.0933,0.0926,0.0888,0.087,0.0826,0.0799,0.0772,0.0728,0.0713,0.0676,0.0655,0.0641,0.0625,0.0602,0.0603,0.0599,0.0559,0.0615,0.0701,0.0708,0.0594,0.0593,0.0593,0,0.1122,0.1077,0.1068,0.1049,0.098,0.0977,0.0948,0.0902,0.0884,0.085,0.0837,0.0803,0.0784,0.0757,0.0704,0.0682,0.0688,0.0647,0.0666,0.0667,0.0671,0.0672,0.0756,0.066,0.066,0.066,0.066,0,0.1186,0.1185,0.1105,0.1099,0.1095,0.1034,0.1032,0.0997,0.0956,0.0942,0.0885,0.0873,0.0803,0.0782,0.074,0.0728,0.072,0.0698,0.0687,0.0703,0.0706,0.0693,0.0689,0.0662,0.0661,0.0661,0.0661,0,0.128,0.1226,0.1211,0.1147,0.113,0.1131,0.1075,0.1066,0.1025,0.1008,0.1,0.0936,0.0909,0.0853,0.081,0.0781,0.0779,0.0759,0.0794,0.0788,0.0809,0.0808,0.0889,0.0896,0.0796,0.0797,0.0798,0,0.1325,0.1323,0.1257,0.1243,0.1217,0.1195,0.1176,0.1114,0.1096,0.1045,0.1042,0.101,0.0981,0.0939,0.0889,0.0855,0.0834,0.0864,0.0829,0.0845,0.0834,0.0836,0.0835,0.0873,0.0874,0.0875,0.0876,0,0.141,0.1383,0.1358,0.1322,0.13,0.1269,0.1235,0.1227,0.1157,0.1139,0.111,0.1088,0.1043,0.1011,0.097,0.0938,0.0896,0.0888,0.089,0.0908,0.0928,0.0917,0.0817,0.0887,0.0886,0.0885,0.0884,0.0884,0.1481,0.1476,0.1428,0.1401,0.1369,0.1338,0.1326,0.1283,0.1258,0.1217,0.1182,0.1156,0.1109,0.1049,0.102,0.0998,0.0978,0.0981,0.0982,0.0984,0.0991,0.0931,0.099,0.099,0.099,0.0989,0.0989,0,0.1564,0.153,0.1505,0.1459,0.1437,0.1398,0.1357,0.1342,0.1319,0.128,0.1252,0.1218,0.1186,0.1132,0.1096,0.1088,0.1068,0.1081,0.1081,0.1075,0.1012,0.1013,0.1098,0.1098,0.1098,0.1098,0.1098,0.1098,0.1604,0.1593,0.156,0.1531,0.1496,0.147,0.1451,0.1421,0.1389,0.1354,0.1327,0.1292,0.1246,0.1205,0.1174,0.1159,0.1148,0.1168,0.1147,0.1089,0.1079,0.107,0.1071,0.1166,0.1166,0.1211,0.1211,0.1212]}]]